STARLINK-1091, 44940

Orbit data source: Space-Track

STARLINK-1091, 44940 is a payload satellite owned by SpaceX/Seattle (US) in LEO that was launched on Tue, 07 Jan 2020 UTC via an FALCON 9 launch vehicle from the Air Force Eastern Test Range (AFETR). Payload-class satellites include a variety of spacecraft equipped with specific instruments for various scientific and technological missions. These include communications satellites like Starlink; space stations such as the ISS; scientific satellites like the Hubble; Earth observation satellites from companies like Planet Labs, Umbra, and HawkEye 360; GPS; miniature CubeSats for education and research; and military/defense satellites.

Not visible in the next 10 days
Identifier
44940, 2020-001AC
Orbit
LEO
Country
Flag of USUS
Related business
Manufacturer
SpaceX/Seattle
Mission
Partially operational Commercial Communications
Bus & Motor
STARLINK, Unknown motor
Mass
260 kg wet, ~248 kg dry
Launch date (UTC)
2020-01-07 (6 years ago)
Launch vehicle
FALCON 9
Launch site
Air Force Eastern Test Range (AFETR)
Object type
Payload
Rocket body
Debris
Shape & HBR
Box + 1 Pan, 10.1 m
Radar Cross Section
13.562 m², Large (>1 m²)

Expand to show TLE details & history
Last TLE update: 8 hours ago

TLE from 8 hours ago
0 STARLINK-1091
1 44940U 20001AC  25311.24058686  .02504689  11862-4  11335-2 0  9996
2 44940  53.0276  81.8921 0004551 320.1821  39.8883 16.21344881322708
Epoch: 2025-11-07T05:46Z
TLE epoch observation values (Epoch: 2025-11-07T05:46:26.704Z)
Latitude
-0.00002°
Longitude
-51.40657°
Altitude
214.521 km
Speed
7.78 km/s
True Right ascension
05h 27m 34s
True Declination
0° 00' 00"
Sunlit
Object was in full shadow at epoch
Visualization orbit readout
Latitude
Unknown
Longitude
Unknown
Altitude
Unknown
Speed
Unknown
Apparent Right ascension
Unknown
Apparent Declination
Unknown
Sunlit
N/A
Visualization observer readout
Local Sidereal Time
09:23:58
Azimuth
Unknown
Elevation
Unknown
Doppler factor
Unknown
Orbital elements
Apogee altitude
219.192 km
Perigee altitude
213.19 km
Semi-major axis
6,594.328 km
Eccentricity
0.00046
Inclination
53.0276°
RAAN
81.8921°
Arg. of periapsis
320.1821°
True anomaly
39.92176°
Mean anomaly
39.8883°
Eccentric anomaly
39.90503°
Mean motion
4.0531 °/min
Orbital period
88.82 mins
BSTAR
0.0011335
Loading maneuver chart data...
Computing Atmospheric mass density...
Loading historical data...
Loading historical data...
Loading historical data...
Loading historical data...
Loading historical data...
Loading historical data...
Loading historical data...

Documentation

Showing up to 5 results
|